Provincetown, Massachusetts, United States (02657)
Lat: 42.06N, Lon: 70.18W
Wx Zone: MAZ022
Local Info
Past Weather Observations for Today

NOTE: This archive is for the closest National Weather Service station to Provincetown. Information may differ from the station used for current weather conditions.

Click here for Long-term Archive

Time Weather Temperature Dewpoint Humidity Pressure Winds Precip Visibility
21:55
Clear
63°F / 17°C 7°F / -14°C 11% 29.95 in
(1014 mb)
SSE 10.4 mph
(SSE 17 kph)
- 10SM
21:35
Clear
61°F / 16°C 7°F / -14°C 11% 29.95 in
(1014 mb)
SSE 10.4 mph
(SSE 17 kph)
- 10SM
21:15
Clear
63°F / 17°C 7°F / -14°C 11% 29.95 in
(1014 mb)
SSE 10.4 mph
(SSE 17 kph)
- 10SM
20:55
Clear
63°F / 17°C 7°F / -14°C 11% 29.95 in
(1014 mb)
SW 11.5 mph
(SW 19 kph)
- 10SM
20:35
Clear
63°F / 17°C 7°F / -14°C 11% 29.92 in
(1013 mb)
SSE 10.4 mph
(SSE 17 kph)
- 10SM
20:15
Clear
63°F / 17°C 7°F / -14°C 11% 29.92 in
(1013 mb)
SSE 9.2 mph
(SSE 15 kph)
- 10SM
19:55
Clear
63°F / 17°C 7°F / -14°C 11% 29.92 in
(1013 mb)
SW 11.5 mph
(SW 19 kph)
- 10SM
19:35
Clear
63°F / 17°C 7°F / -14°C 11% 29.92 in
(1013 mb)
SW 10.4 mph
(SW 17 kph)
- 10SM
19:15
Clear
64°F / 18°C 9°F / -13°C 11% 29.92 in
(1013 mb)
SSE 10.4 mph
(SSE 17 kph)
- 10SM
18:55
Partly Cloudy
64°F / 18°C 9°F / -13°C 11% 29.92 in
(1013 mb)
SW 10.4 mph
(SW 17 kph)
- 10SM
18:35
Mostly Cloudy
66°F / 19°C 10°F / -12°C 11% 29.92 in
(1013 mb)
SW 10.4 mph
(SW 17 kph)
- 10SM
18:15
Overcast
66°F / 19°C 10°F / -12°C 11% 29.92 in
(1013 mb)
SW 11.5 mph
(SW 19 kph)
- 10SM
17:55
Overcast
66°F / 19°C 10°F / -12°C 11% 29.89 in
(1012 mb)
SW 12.7 mph
(SW 20 kph)
- 10SM
17:35
Overcast
68°F / 20°C 10°F / -12°C 10% 29.89 in
(1012 mb)
SSE 11.5 mph
(SSE 19 kph)
- 10SM
17:15
Overcast
68°F / 20°C 10°F / -12°C 10% 29.89 in
(1012 mb)
SW 12.7 mph
(SW 20 kph)
- 10SM
16:55
Overcast
70°F / 21°C 12°F / -11°C 11% 29.89 in
(1012 mb)
SW 9.2 mph
(SW 15 kph)
- 10SM
16:35
Partly Cloudy
72°F / 22°C 12°F / -11°C 10% 29.89 in
(1012 mb)
SW 11.5 mph
(SW 19 kph)
- 10SM
16:15
Clear
73°F / 23°C 16°F / -9°C 11% 29.89 in
(1012 mb)
SW 11.5 mph
(SW 19 kph)
- 10SM
15:55
Partly Cloudy
73°F / 23°C 16°F / -9°C 11% 29.86 in
(1011 mb)
SW 13.8 mph
(SW 22 kph)
- 10SM
15:35
Mostly Cloudy
73°F / 23°C 14°F / -10°C 10% 29.86 in
(1011 mb)
SW 13.8 mph
(SW 22 kph)
- 10SM
15:15
Mostly Cloudy
73°F / 23°C 14°F / -10°C 10% 29.86 in
(1011 mb)
SW 12.7 mph
(SW 20 kph)
- 10SM
14:55
Clear
73°F / 23°C 16°F / -9°C 11% 29.86 in
(1011 mb)
SW 16.1 mph
(SW 26 kph)
- 10SM
14:35
Partly Cloudy
73°F / 23°C 16°F / -9°C 11% 29.86 in
(1011 mb)
SW 15 mph
(SW 24 kph)
- 10SM
14:15
Mostly Cloudy
75°F / 24°C 16°F / -9°C 10% 29.86 in
(1011 mb)
SW 15 mph
(SW 24 kph)
- 10SM
13:55
Mostly Cloudy
73°F / 23°C 14°F / -10°C 10% 29.86 in
(1011 mb)
SW 9.2 mph
(SW 15 kph)
- 10SM
13:35
Overcast
73°F / 23°C 14°F / -10°C 10% 29.86 in
(1011 mb)
SW 9.2 mph
(SW 15 kph)
- 10SM
13:15
Overcast
73°F / 23°C 14°F / -10°C 10% 29.89 in
(1012 mb)
SW 6.9 mph
(SW 11 kph)
- 10SM
12:55
Overcast
75°F / 24°C 16°F / -9°C 10% 29.86 in
(1011 mb)
SW 4.6 mph
(SW 7 kph)
- 10SM
12:35
Mostly Cloudy
73°F / 23°C 16°F / -9°C 11% 29.86 in
(1011 mb)
SW 6.9 mph
(SW 11 kph)
- 10SM
12:15
Partly Cloudy
73°F / 23°C 16°F / -9°C 11% 29.86 in
(1011 mb)
SW 8.1 mph
(SW 13 kph)
- 10SM
11:55
Partly Cloudy
73°F / 23°C 14°F / -10°C 10% 29.86 in
(1011 mb)
S 8.1 mph
(S 13 kph)
- 10SM
11:35
Mostly Cloudy
72°F / 22°C 12°F / -11°C 10% 29.89 in
(1012 mb)
SW 9.2 mph
(SW 15 kph)
- 10SM
11:15
Overcast
70°F / 21°C 12°F / -11°C 11% 29.89 in
(1012 mb)
S 6.9 mph
(S 11 kph)
- 10SM
10:55
Overcast
68°F / 20°C 10°F / -12°C 10% 29.86 in
(1011 mb)
SSE 9.2 mph
(SSE 15 kph)
- 10SM
10:35
Overcast
68°F / 20°C 10°F / -12°C 10% 29.86 in
(1011 mb)
S 10.4 mph
(S 17 kph)
- 10SM
10:15
Overcast
66°F / 19°C 10°F / -12°C 11% 29.86 in
(1011 mb)
SSE 8.1 mph
(SSE 13 kph)
- 10SM
09:55
Overcast
66°F / 19°C 9°F / -13°C 10% 29.86 in
(1011 mb)
S 9.2 mph
(S 15 kph)
- 10SM
09:35
Overcast
66°F / 19°C 9°F / -13°C 10% 29.86 in
(1011 mb)
SSE 8.1 mph
(SSE 13 kph)
- 10SM
09:15
Overcast
64°F / 18°C 9°F / -13°C 11% 29.86 in
(1011 mb)
S 8.1 mph
(S 13 kph)
- 10SM
08:55
Overcast
63°F / 17°C 7°F / -14°C 11% 29.86 in
(1011 mb)
S 10.4 mph
(S 17 kph)
- 10SM
08:35
Overcast
63°F / 17°C 7°F / -14°C 11% 29.86 in
(1011 mb)
S 9.2 mph
(S 15 kph)
- 10SM
08:15
Overcast
61°F / 16°C 5°F / -15°C 11% 29.86 in
(1011 mb)
S 5.8 mph
(S 9 kph)
- 10SM
07:55
Overcast
59°F / 15°C 3°F / -16°C 10% 29.86 in
(1011 mb)
S 6.9 mph
(S 11 kph)
- 10SM
07:35
Overcast
59°F / 15°C 3°F / -16°C 10% 29.86 in
(1011 mb)
S 6.9 mph
(S 11 kph)
- 10SM
07:15
Overcast
57°F / 14°C 3°F / -16°C 11% 29.83 in
(1010 mb)
S 4.6 mph
(S 7 kph)
- 10SM
06:55
Overcast
57°F / 14°C 3°F / -16°C 11% 29.83 in
(1010 mb)
S 4.6 mph
(S 7 kph)
- 10SM
06:35
Overcast
57°F / 14°C 3°F / -16°C 11% 29.83 in
(1010 mb)
S 3.5 mph
(S 6 kph)
- 10SM
06:15
Overcast
57°F / 14°C 1°F / -17°C 10% 29.83 in
(1010 mb)
SSE 3.5 mph
(SSE 6 kph)
- 10SM
05:55
Overcast
57°F / 14°C 1°F / -17°C 10% 29.83 in
(1010 mb)
SW 4.6 mph
(SW 7 kph)
- 10SM
05:35
Overcast
55°F / 13°C 1°F / -17°C 11% 29.83 in
(1010 mb)
Calm - 10SM
05:15
Overcast
55°F / 13°C 1°F / -17°C 11% 29.83 in
(1010 mb)
Calm - 10SM
04:55
Overcast
55°F / 13°C 1°F / -17°C 11% 29.83 in
(1010 mb)
Calm - 10SM
04:35
Overcast
54°F / 12°C 1°F / -17°C 12% 29.83 in
(1010 mb)
Calm - 10SM
04:15
Overcast
54°F / 12°C °F / -18°C 11% 29.83 in
(1010 mb)
Calm - 10SM
03:55
Overcast
54°F / 12°C °F / -18°C 11% 29.8 in
(1009 mb)
SSE 3.5 mph
(SSE 6 kph)
- 10SM
03:35
Overcast
54°F / 12°C °F / -18°C 11% 29.8 in
(1009 mb)
Calm - 10SM
03:15
Overcast
54°F / 12°C °F / -18°C 11% 29.8 in
(1009 mb)
Calm - 10SM
02:55
Overcast
54°F / 12°C °F / -18°C 11% 29.8 in
(1009 mb)
Calm - 10SM
02:35
Overcast
54°F / 12°C °F / -18°C 11% 29.8 in
(1009 mb)
Calm - 10SM
02:15
Overcast
54°F / 12°C °F / -18°C 11% 29.8 in
(1009 mb)
NNW 4.6 mph
(NNW 7 kph)
- 10SM
01:55
Overcast
54°F / 12°C °F / -18°C 11% 29.8 in
(1009 mb)
NNW 5.8 mph
(NNW 9 kph)
- 10SM
01:35
Overcast
54°F / 12°C °F / -18°C 11% 29.8 in
(1009 mb)
N 6.9 mph
(N 11 kph)
- 10SM
01:15
Overcast
54°F / 12°C °F / -18°C 11% 29.77 in
(1008 mb)
N 6.9 mph
(N 11 kph)
- 10SM
00:55
Overcast
54°F / 12°C °F / -18°C 11% 29.77 in
(1008 mb)
NNW 8.1 mph
(NNW 13 kph)
- 10SM
00:35
Overcast
54°F / 12°C °F / -18°C 11% 29.77 in
(1008 mb)
NNW 10.4 mph
(NNW 17 kph)
- 10SM
00:15
Overcast
54°F / 12°C °F / -18°C 11% 29.77 in
(1008 mb)
NNW 9.2 mph
(NNW 15 kph)
- 10SM
Time Weather Temperature Dewpoint Humidity Pressure Winds Precip Visibility


Weather for websites

WeatherForYou.com, LLC is not responsible for any damages or problems caused by this service. Current weather conditions are obtained from the closest station including government and personal stations which may have varying degrees of accuracy. Weather forecasts are derived from the NOAA NDFD. Like all things, this site belongs to Jesus Christ... He just trusts us to maintain it. If you have any questions or comments email webmaster@weatherforyou.com

Copyright © 2015, WeatherForYou.com LLC. All rights reserved.